User: anonymous   Login
Location: Melbourne
(37.8170°S, 144.9670°E)
Time: 05:51:04
(UTC+10:00)
Language:

Aureole 2 Rocket - Orbit

View from above orbital plane
View from above orbital plane
View from above satellite
View from above satellite

Ground track
Ground track

The orbit data is extracted from the following two-line orbital elements,

1  7004U 73107B   18173.83208146 +.00010987 +00000-0 +13920-3 0  9994
2  7004 073.9308 332.4298 0148753 107.4869 254.2663 15.47284244294416
Epoch (UTC): 22 June 2018 19:58:11
Eccentricity: 0.0148753
inclination: 73.9308°
perigee height: 323 km
apogee height: 526 km
right ascension of ascending node: 332.4298°
argument of perigee: 107.4869°
revolutions per day: 15.47284244
mean anomaly at epoch: 254.2663°
orbit number at epoch: 29441

The dashed part of the orbit path shows where the satellite is in the earth's shadow,  

DLR